Time,TemperatureF,DewpointF,PressureIn,WindDirection,WindDirectionDegrees,WindSpeedMPH,WindSpeedGustMPH,Humidity,HourlyPrecipIn,Conditions,Clouds,dailyrainin,SolarRadiationWatts/m^2,SoftwareType,DateUTC
2013-06-14 00:12:00,48.0,36.0,-100.00,NW,309,11.0,17.0,64,0.00,,,0.01,0.000000,,2013-06-14 07:12:00,
2013-06-14 00:22:00,48.0,36.0,-100.00,NW,309,11.0,17.0,64,0.00,,,0.01,0.000000,,2013-06-14 07:22:00,
2013-06-14 00:33:00,48.0,36.0,-100.00,NW,309,11.0,17.0,64,0.00,,,0.01,0.000000,,2013-06-14 07:33:00,
2013-06-14 00:43:00,48.0,36.0,-100.00,NW,309,11.0,17.0,64,0.00,,,0.01,0.000000,,2013-06-14 07:43:00,
2013-06-14 01:12:00,46.0,35.0,-100.00,NW,305,9.0,17.0,65,0.00,,,0.01,0.000000,,2013-06-14 08:12:00,
2013-06-14 01:22:00,46.0,35.0,-100.00,NW,305,9.0,17.0,65,0.00,,,0.01,0.000000,,2013-06-14 08:22:00,
2013-06-14 01:33:00,46.0,35.0,-100.00,NW,305,9.0,17.0,65,0.00,,,0.01,0.000000,,2013-06-14 08:33:00,
2013-06-14 01:43:00,46.0,35.0,-100.00,NW,305,9.0,17.0,65,0.00,,,0.01,0.000000,,2013-06-14 08:43:00,
2013-06-14 02:12:00,49.0,36.0,-100.00,NW,306,10.0,15.0,61,0.00,,,0.01,0.000000,,2013-06-14 09:12:00,
2013-06-14 02:22:00,49.0,36.0,-100.00,NW,306,10.0,15.0,61,0.00,,,0.01,0.000000,,2013-06-14 09:22:00,
2013-06-14 02:33:00,49.0,36.0,-100.00,NW,306,10.0,15.0,61,0.00,,,0.01,0.000000,,2013-06-14 09:33:00,
2013-06-14 02:43:00,49.0,36.0,-100.00,NW,306,10.0,15.0,61,0.00,,,0.01,0.000000,,2013-06-14 09:43:00,
2013-06-14 03:11:00,47.0,35.0,-100.00,WNW,300,11.0,17.0,63,0.00,,,0.01,0.000000,,2013-06-14 10:11:00,
2013-06-14 03:22:00,47.0,35.0,-100.00,WNW,300,11.0,17.0,63,0.00,,,0.01,0.000000,,2013-06-14 10:22:00,
2013-06-14 03:34:00,47.0,35.0,-100.00,WNW,300,11.0,17.0,63,0.00,,,0.01,0.000000,,2013-06-14 10:34:00,
2013-06-14 03:43:00,47.0,35.0,-100.00,WNW,300,11.0,17.0,63,0.00,,,0.01,0.000000,,2013-06-14 10:43:00,
2013-06-14 04:11:00,45.0,35.0,-100.00,NW,307,8.0,14.0,68,0.00,,,0.01,0.000000,,2013-06-14 11:11:00,
2013-06-14 04:22:00,45.0,35.0,-100.00,NW,307,8.0,14.0,68,0.00,,,0.01,0.000000,,2013-06-14 11:22:00,
2013-06-14 04:32:00,45.0,35.0,-100.00,NW,307,8.0,14.0,68,0.00,,,0.01,0.000000,,2013-06-14 11:32:00,
2013-06-14 04:43:00,45.0,35.0,-100.00,NW,307,8.0,14.0,68,0.00,,,0.01,0.000000,,2013-06-14 11:43:00,
2013-06-14 05:11:00,41.0,33.0,-100.00,NW,314,7.0,10.0,74,0.00,,,0.01,0.000000,,2013-06-14 12:11:00,
2013-06-14 05:22:00,41.0,33.0,-100.00,NW,314,7.0,10.0,74,0.00,,,0.01,0.000000,,2013-06-14 12:22:00,
2013-06-14 05:32:00,41.0,33.0,-100.00,NW,314,7.0,10.0,74,0.00,,,0.01,0.000000,,2013-06-14 12:32:00,
2013-06-14 05:43:00,41.0,33.0,-100.00,NW,314,7.0,10.0,74,0.00,,,0.01,0.000000,,2013-06-14 12:43:00,
2013-06-14 06:11:00,46.0,36.0,-100.00,NW,304,8.0,12.0,67,0.00,,,0.01,0.000000,,2013-06-14 13:11:00,
2013-06-14 06:22:00,46.0,36.0,-100.00,NW,304,8.0,12.0,67,0.00,,,0.01,0.000000,,2013-06-14 13:22:00,
2013-06-14 06:33:00,46.0,36.0,-100.00,NW,304,8.0,12.0,67,0.00,,,0.01,0.000000,,2013-06-14 13:33:00,
2013-06-14 06:43:00,46.0,36.0,-100.00,NW,304,8.0,12.0,67,0.00,,,0.01,0.000000,,2013-06-14 13:43:00,
2013-06-14 07:11:00,51.0,38.0,-100.00,WNW,303,10.0,14.0,60,0.00,,,0.01,7.000000,,2013-06-14 14:11:00,
2013-06-14 07:22:00,51.0,38.0,-100.00,WNW,303,10.0,14.0,60,0.00,,,0.01,7.000000,,2013-06-14 14:22:00,
2013-06-14 07:34:00,51.0,38.0,-100.00,WNW,303,10.0,14.0,60,0.00,,,0.01,7.000000,,2013-06-14 14:34:00,
2013-06-14 07:43:00,51.0,38.0,-100.00,WNW,303,10.0,14.0,60,0.00,,,0.01,7.000000,,2013-06-14 14:43:00,
2013-06-14 08:11:00,57.0,38.0,-100.00,WNW,297,14.0,20.0,49,0.00,,,0.01,218.000000,,2013-06-14 15:11:00,
2013-06-14 08:22:00,57.0,38.0,-100.00,WNW,297,14.0,20.0,49,0.00,,,0.01,218.000000,,2013-06-14 15:22:00,
2013-06-14 08:33:00,57.0,38.0,-100.00,WNW,297,14.0,20.0,49,0.00,,,0.01,218.000000,,2013-06-14 15:33:00,
2013-06-14 08:43:00,57.0,38.0,-100.00,WNW,297,14.0,20.0,49,0.00,,,0.01,218.000000,,2013-06-14 15:43:00,
2013-06-14 09:11:00,59.0,37.0,-100.00,NW,308,9.0,21.0,44,0.00,,,0.01,410.000000,,2013-06-14 16:11:00,
2013-06-14 09:22:00,59.0,37.0,-100.00,NW,308,9.0,21.0,44,0.00,,,0.01,410.000000,,2013-06-14 16:22:00,
2013-06-14 09:32:00,59.0,37.0,-100.00,NW,308,9.0,21.0,44,0.00,,,0.01,410.000000,,2013-06-14 16:32:00,
2013-06-14 09:43:00,59.0,37.0,-100.00,NW,308,9.0,21.0,44,0.00,,,0.01,410.000000,,2013-06-14 16:43:00,
2013-06-14 10:11:00,64.0,34.0,-100.00,SSW,213,4.0,14.0,33,0.00,,,0.01,616.000000,,2013-06-14 17:11:00,
2013-06-14 10:22:00,64.0,34.0,-100.00,SSW,213,4.0,14.0,33,0.00,,,0.01,616.000000,,2013-06-14 17:22:00,
2013-06-14 10:34:00,64.0,34.0,-100.00,SSW,213,4.0,14.0,33,0.00,,,0.01,616.000000,,2013-06-14 17:34:00,
2013-06-14 10:43:00,64.0,34.0,-100.00,SSW,213,4.0,14.0,33,0.00,,,0.01,616.000000,,2013-06-14 17:43:00,
2013-06-14 11:21:00,63.0,34.0,-100.00,West,268,4.0,12.0,34,0.00,,,0.01,612.000000,,2013-06-14 18:21:00,
2013-06-14 11:32:00,63.0,34.0,-100.00,West,268,4.0,12.0,34,0.00,,,0.01,612.000000,,2013-06-14 18:32:00,
2013-06-14 11:42:00,63.0,34.0,-100.00,West,268,4.0,12.0,34,0.00,,,0.01,612.000000,,2013-06-14 18:42:00,
2013-06-14 12:21:00,70.0,36.0,-100.00,SSE,147,5.0,16.0,29,0.00,,,0.01,1003.000000,,2013-06-14 19:21:00,
2013-06-14 12:32:00,70.0,36.0,-100.00,SSE,147,5.0,16.0,29,0.00,,,0.01,1003.000000,,2013-06-14 19:32:00,
2013-06-14 12:43:00,70.0,36.0,-100.00,SSE,147,5.0,16.0,29,0.00,,,0.01,1003.000000,,2013-06-14 19:43:00,
2013-06-14 13:11:00,67.0,34.0,-100.00,SE,141,8.0,16.0,29,0.00,,,0.01,658.000000,,2013-06-14 20:11:00,
2013-06-14 13:22:00,67.0,34.0,-100.00,SE,141,8.0,16.0,29,0.00,,,0.01,658.000000,,2013-06-14 20:22:00,
2013-06-14 13:33:00,67.0,34.0,-100.00,SE,141,8.0,16.0,29,0.00,,,0.01,658.000000,,2013-06-14 20:33:00,
2013-06-14 13:43:00,67.0,34.0,-100.00,SE,141,8.0,16.0,29,0.00,,,0.01,658.000000,,2013-06-14 20:43:00,
2013-06-14 14:11:00,70.0,34.0,-100.00,WSW,253,5.0,19.0,27,0.00,,,0.01,794.000000,,2013-06-14 21:11:00,
2013-06-14 14:22:00,70.0,34.0,-100.00,WSW,253,5.0,19.0,27,0.00,,,0.01,794.000000,,2013-06-14 21:22:00,
2013-06-14 14:34:00,70.0,34.0,-100.00,WSW,253,5.0,19.0,27,0.00,,,0.01,794.000000,,2013-06-14 21:34:00,
2013-06-14 14:42:00,70.0,34.0,-100.00,WSW,253,5.0,19.0,27,0.00,,,0.01,794.000000,,2013-06-14 21:42:00,
2013-06-14 15:11:00,70.0,34.0,-100.00,WNW,283,7.0,15.0,27,0.00,,,0.01,499.000000,,2013-06-14 22:11:00,
2013-06-14 15:22:00,70.0,34.0,-100.00,WNW,283,7.0,15.0,27,0.00,,,0.01,499.000000,,2013-06-14 22:22:00,
2013-06-14 15:33:00,70.0,34.0,-100.00,WNW,283,7.0,15.0,27,0.00,,,0.01,499.000000,,2013-06-14 22:33:00,
2013-06-14 15:43:00,70.0,34.0,-100.00,WNW,283,7.0,15.0,27,0.00,,,0.01,499.000000,,2013-06-14 22:43:00,
2013-06-14 16:22:00,74.0,36.0,-100.00,SW,236,7.0,14.0,25,0.00,,,0.01,596.000000,,2013-06-14 23:22:00,
2013-06-14 16:33:00,74.0,36.0,-100.00,SW,236,7.0,14.0,25,0.00,,,0.01,596.000000,,2013-06-14 23:33:00,
2013-06-14 16:43:00,74.0,36.0,-100.00,SW,236,7.0,14.0,25,0.00,,,0.01,596.000000,,2013-06-14 23:43:00,
2013-06-14 17:11:00,74.0,36.0,-100.00,SW,217,8.0,21.0,25,0.00,,,0.00,599.000000,,2013-06-15 00:11:00,
2013-06-14 17:22:00,74.0,36.0,-100.00,SW,217,8.0,21.0,25,0.00,,,0.00,599.000000,,2013-06-15 00:22:00,
2013-06-14 17:33:00,74.0,36.0,-100.00,SW,217,8.0,21.0,25,0.00,,,0.00,599.000000,,2013-06-15 00:33:00,
2013-06-14 17:43:00,74.0,36.0,-100.00,SW,217,8.0,21.0,25,0.00,,,0.00,599.000000,,2013-06-15 00:43:00,
2013-06-14 18:11:00,71.0,36.0,-100.00,South,178,10.0,18.0,28,0.00,,,0.00,267.000000,,2013-06-15 01:11:00,
2013-06-14 18:22:00,71.0,36.0,-100.00,South,178,10.0,18.0,28,0.00,,,0.00,267.000000,,2013-06-15 01:22:00,
2013-06-14 18:33:00,71.0,36.0,-100.00,South,178,10.0,18.0,28,0.00,,,0.00,267.000000,,2013-06-15 01:33:00,
2013-06-14 18:42:00,71.0,36.0,-100.00,South,178,10.0,18.0,28,0.00,,,0.00,267.000000,,2013-06-15 01:42:00,
2013-06-14 19:11:00,73.0,38.0,-100.00,WSW,253,7.0,15.0,28,0.00,,,0.00,117.000000,,2013-06-15 02:11:00,
2013-06-14 19:22:00,73.0,38.0,-100.00,WSW,253,7.0,15.0,28,0.00,,,0.00,117.000000,,2013-06-15 02:22:00,
2013-06-14 19:33:00,73.0,38.0,-100.00,WSW,253,7.0,15.0,28,0.00,,,0.00,117.000000,,2013-06-15 02:33:00,
2013-06-14 19:43:00,73.0,38.0,-100.00,WSW,253,7.0,15.0,28,0.00,,,0.00,117.000000,,2013-06-15 02:43:00,
2013-06-14 20:11:00,68.0,35.0,-100.00,SSE,160,10.0,18.0,30,0.00,,,0.00,3.000000,,2013-06-15 03:11:00,
2013-06-14 20:23:00,68.0,35.0,-100.00,SSE,160,10.0,18.0,30,0.00,,,0.00,3.000000,,2013-06-15 03:23:00,
2013-06-14 20:32:00,68.0,35.0,-100.00,SSE,160,10.0,18.0,30,0.00,,,0.00,3.000000,,2013-06-15 03:32:00,
2013-06-14 20:43:00,68.0,35.0,-100.00,SSE,160,10.0,18.0,30,0.00,,,0.00,3.000000,,2013-06-15 03:43:00,
2013-06-14 21:11:00,64.0,37.0,-100.00,South,177,8.0,20.0,36,0.00,,,0.00,0.000000,,2013-06-15 04:11:00,
2013-06-14 21:22:00,64.0,37.0,-100.00,South,177,8.0,20.0,36,0.00,,,0.00,0.000000,,2013-06-15 04:22:00,
2013-06-14 21:34:00,64.0,37.0,-100.00,South,177,8.0,20.0,36,0.00,,,0.00,0.000000,,2013-06-15 04:34:00,
2013-06-14 21:43:00,64.0,37.0,-100.00,South,177,8.0,20.0,36,0.00,,,0.00,0.000000,,2013-06-15 04:43:00,
2013-06-14 22:12:00,56.0,35.0,-100.00,SW,224,2.0,10.0,45,0.00,,,0.00,0.000000,,2013-06-15 05:12:00,
2013-06-14 22:22:00,56.0,35.0,-100.00,SW,224,2.0,10.0,45,0.00,,,0.00,0.000000,,2013-06-15 05:22:00,
2013-06-14 22:34:00,56.0,35.0,-100.00,SW,224,2.0,10.0,45,0.00,,,0.00,0.000000,,2013-06-15 05:34:00,
2013-06-14 22:42:00,56.0,35.0,-100.00,SW,224,2.0,10.0,45,0.00,,,0.00,0.000000,,2013-06-15 05:42:00,
2013-06-14 23:12:00,53.0,33.0,-100.00,ESE,120,5.0,7.0,46,0.00,,,0.00,0.000000,,2013-06-15 06:12:00,
2013-06-14 23:24:00,53.0,33.0,-100.00,ESE,120,5.0,7.0,46,0.00,,,0.00,0.000000,,2013-06-15 06:24:00,
2013-06-14 23:33:00,53.0,33.0,-100.00,ESE,120,5.0,7.0,46,0.00,,,0.00,0.000000,,2013-06-15 06:33:00,
2013-06-14 23:43:00,53.0,33.0,-100.00,ESE,120,5.0,7.0,46,0.00,,,0.00,0.000000,,2013-06-15 06:43:00,